SSETI-EXPRESS

Satellite information

Favourite Embed

Satellite Type and Status

PAYLOADIN ORBIT

Key statistics

Satellite SSETI-EXPRESS at a glance.

Uptime

7302

Days in orbit

Revolutions

≈ 14.6

Per day

Orbit

SSO

Sun Synchronous Orbit

Inclination

98.3

Latest

Satellite identification and parameters

Extended collection of information and parameters for SSETI-EXPRESS.

Object identification

Identified? True

Debris? False

Object name: SSETI-EXPRESS

International designator: 2005-043E

Object number (NORAD): 28894

Object ID (CCSDS): 28894

Country: EUROPEAN SPACE AGENCY (ESA)

Current information (Y/N): Y

RCS size: MEDIUM

Orbital parameters

Period: 98.296 minutes

Inclination: 98.2761 deg

SMA: 7055.316 km

Apoapsis: 687.722 km

Periapsis: 666.641 km

RAAN: 70.0238 deg

Eccentricy: 0.00149397

Argument of periapsis: 302.595 deg

Mean anomaly: 57.381 deg

Mean motion: 14.64967671 rev/day

Mean motion (dot): 0.00001112 rev/day2

B* drag term: 0.00021675199 1/REarth

Two-line elements (TLE)

Creation date: Oct. 24, 2025, 2:48 a.m.

Reference frame: TEME

Reference center: EARTH

Epoch: Oct. 23, 2025, 11:09 p.m. UTC

TLE line 0: 0 SSETI-EXPRESS

TLE line 1: 1 28894U 05043E 25296.96497312 .00001112 00000-0 21675-3 0 9997

TLE line 2: 2 28894 98.2761 70.0238 0014940 302.5950 57.3810 14.64967671 65688

Live tracking on map

Real-time ground track for satellite SSETI-EXPRESS.

In-orbit conjunctions

A list of the most updated potential collisions computed for object SSETI-EXPRESS.

Target Orbit TCA Probability of collision Miss distance Type
CZ-6A DEB LEO 2024-12-22 19:34:43 0.0003988482 945.0 (m) DEBRIS
COSMOS 2251 DEB LEO 2024-09-13 11:11:04 0.0001426928 487.0 (m) DEBRIS
FENGYUN 1C DEB SSO 2024-07-28 09:02:38 0.0002481832 791.0 (m) DEBRIS

Associated space launch

Civilian surveillance satellite.

SSETI-EXPRESS was lifted into orbit during the mission ‘Kosmos-3M | Beijing-1’, on board a Kosmos-3M space rocket.

The launch took place on Oct. 27, 2005, 6:52 a.m. from 132/1 (132L).

For more information about the launch, click the button.

Launch to space Kosmos-3M | Beijing-1
Kosmos-3M | Beijing-1

Agency: N/A

Status: Launch Successful

Launch date: Oct. 27, 2005, 6:52 a.m. UTC

Rocket: Kosmos-3M

Launch pad: 132/1 (132L)

Location: Plesetsk Cosmodrome, Russian Federation

...

Latest news about this satellite

There are no fresh news available about this satellite. Check back as we update our databases every day.


Newsletter sign-up

Weekly statistics, charts and insights to help you stay on top of the space industry.